Regional Weather Roundup
Issued by NWS

Home | Current Version | Previous Version | Text Only | Print | Product List | Glossary On
Versions: 1 2 3 4 5 6 7 8 9 10 11 12 13 14 15 16 17 18 19 20 21 22 23 24 25 26 27 28 29 30 31 32 33 34 35 36 37 38 39 40 41 42 43 44 45 46 47 48 49 50
000
ASUS43 KDTX 191910
RWRMI
MICHIGAN HOURLY REGIONAL WEATHER ROUNDUP
NATIONAL WEATHER SERVICE DETROIT/PONTIAC MI
200 PM EST FRI DEC 19 2014

NOTE: "FAIR" INDICATES FEW OR NO CLOUDS BELOW 12,000 FEET WITH NO
SIGNIFICANT WEATHER AND/OR OBSTRUCTION TO VISIBILITY.

MIZ047>049-052>055-059>063-066>070-074>076-081>083-192000-
SOUTHEAST LOWER MICHIGAN

CITY           SKY/WX    TMP DP  RH WIND       PRES   REMARKS
ADRIAN         CLOUDY    29  24  82 CALM      30.25F
ALMA           SUNNY     30  20  65 CALM      30.26F
ANN ARBOR      CLOUDY    28  22  78 NW6       30.25F WCI  22
BAD AXE        CLOUDY    29  21  73 NW3       30.25S
CARO           MOSUNNY   31  21  65 NW3       30.25S
DETROIT CITY   PTSUNNY   32  18  56 W3        30.26S
DETROIT        CLOUDY    28  19  69 NW5       30.27S WCI  23
FLINT          MOSUNNY   31  21  66 CALM      30.25F
GROSSE ILE     CLOUDY    28  19  69 CALM      30.25S
HILLSDALE      CLOUDY    29  24  79 CALM      30.21F
HOWELL         PTSUNNY   27  20  73 CALM      30.24F

CITY           SKY/WX    TMP DP  RH WIND       PRES   REMARKS
JACKSON        CLOUDY    28  22  78 CALM      30.23F
LAMBERTVILLE   CLOUDY    32  25  74 CALM      30.25F
LANSING        MOSUNNY   27  21  78 S6        30.26F WCI  20
LAPEER         MOCLDY    30  20  66 N3        30.24F
MASON          CLOUDY    26  20  78 CALM      30.25S
MONROE         CLOUDY    30  25  80 CALM      30.24F
MT. CLEMENS    MOSUNNY   33  21  61 W5        30.23S WCI  29
PONTIAC        PTSUNNY   29  19  66 SE5       30.23S WCI  24
PORT HOPE        N/A     30  21  69 NW6       30.24R WCI  24
PORT HURON     PTSUNNY   32  21  64 NW3       30.24S
TRI CITIES     SUNNY     31  18  58 VRB3      30.26F
TROY           SUNNY     33  18  55 NE3       30.26S
SAGINAW HB     SUNNY     32  21  64 W3        30.26S
$$
MIZ043>046-050>051-056>058-064>065-071>073-077>080-192000-
SOUTHWEST LOWER MICHIGAN

CITY           SKY/WX    TMP DP  RH WIND       PRES   REMARKS
BATTLE CREEK   CLOUDY    30  21  69 CALM      30.24F
BENTON HARBOR  CLOUDY    32  25  75 N6        30.26F WCI  26
BIG RAPIDS     SUNNY     29  20  67 CALM      30.24S
COLDWATER      CLOUDY    29  26  90 MISG      30.23F FOG
FREMONT        FAIR      29  14  53 CALM      30.25F
HOLLAND        MOSUNNY   34  21  59 E5        30.26F WCI  30
GRAND RAPIDS   MOSUNNY   31  19  61 CALM      30.25F
IONIA          FAIR      31  20  65 S3        30.25S
KALAMAZOO      MOSUNNY   31  20  63 CALM      30.24F
LUDINGTON      PTSUNNY   31  22  70 NE6       30.27S WCI  25
MARSHALL       CLOUDY    28  22  75 CALM      30.24S
MOUNT PLEASANT SUNNY     31  17  58 W3        30.25F
MUSKEGON       MOSUNNY   34  19  54 NW5       30.26F WCI  30
SOUTH HAVEN    SUNNY     34  24  66 N8        30.25F WCI  27
$$
MIZ016>042-192000-
NORTHERN LOWER MICHIGAN

CITY           SKY/WX    TMP DP  RH WIND       PRES   REMARKS
ALPENA         MOSUNNY   29  19  66 N7        30.25S WCI  22
BEAVER ISLAND  SUNNY     27  22  80 NW3       30.26F
BELLAIRE       PTSUNNY   28  21  76 CALM      30.27S
CADILLAC       PTSUNNY   27  21  78 CALM      30.21S
CHARLEVOIX     MOSUNNY   28  22  80 CALM      30.28F
FRANKFORT      CLOUDY    31  24  73 CALM      30.26S
GAYLORD        SUNNY     28  15  58 CALM      30.20F
GRAYLING       SUNNY     28  19  67 CALM      30.23S
HARBOR SPRINGS SUNNY     26  20  77 SW5       30.25F WCI  21
HOUGHTON LAKE  SUNNY     24  19  81 S3        30.23S
MANISTEE       MOSUNNY   30  21  69 N6        30.27S WCI  24
OSCODA         PTSUNNY   28  20  70 NE5       30.25S WCI  23
PELLSTON       SUNNY     28  18  66 CALM      30.26F
ROGERS CITY    SUNNY     26  21  83 N7        30.26F WCI  18
TRAVERSE CITY  PTSUNNY   30  21  69 CALM      30.25F
$$
MIZ007>008-015-192000-
EASTERN UPPER MICHIGAN

CITY           SKY/WX    TMP DP  RH WIND       PRES   REMARKS
KINROSS        SUNNY     27  16  63 NE5       30.24F WCI  21
MACKINAC ISLAN SUNNY     26  15  63 CALM      30.25S
NEWBERRY       MOSUNNY   26  21  83 N3        30.24S
S. S. MARIE    SUNNY     25  11  55 CALM      30.25S
MUNISING         N/A     32  22  66 NE8       30.25F WCI  25
$$
MIZ004>006-011>014-085-192000-
CENTRAL UPPER MICHIGAN

CITY           SKY/WX    TMP DP  RH WIND       PRES   REMARKS
MANISTIQUE     MOSUNNY   29  22  75 N5        30.25F WCI  24
ESCANABA       CLOUDY    28  19  69 CALM      30.27S
MENOMINEE      CLOUDY    28  21  74 SE5       30.27S WCI  23
SAWYER-GWINN   CLOUDY    28  21  74 NE6       30.22F WCI  22
$$
MIZ001>003-009>011-084-192000-
WESTERN UPPER MICHIGAN

CITY           SKY/WX    TMP DP  RH WIND       PRES   REMARKS
IRON MOUNTAIN  CLOUDY    26  20  77 CALM      30.24S
HOUGHTON       CLOUDY    26  18  71 SW5       30.23F WCI  20
COPPER HARBOR    N/A     31  21  66 CALM      30.25F
IRONWOOD       CLOUDY    23  21  93 S8        30.19F WCI  14
$$

ABBREVIATIONS USED IN REMARKS
   TC - TEMPERATURE IN CELSIUS
  WCI - WIND CHILL INDEX
   HX - HEAT INDEX
  VSB - VISIBILITY



USA.gov is the U.S. government's official web portal to all federal, state and local government web resources and services.